TimeEDT,TemperatureF,Dew PointF,Humidity,Sea Level PressureIn,VisibilityMPH,Wind Direction,Wind SpeedMPH,Gust SpeedMPH,PrecipitationIn,Events,Conditions,WindDirDegrees,DateUTC
12:17 AM,33.8,28.4,81,29.99,10.0,Calm,Calm,-,N/A,,Overcast,0,2013-03-13 04:17:00
12:51 AM,32.0,27.0,82,30.05,10.0,SSW,3.5,-,N/A,,Overcast,200,2013-03-13 04:51:00
1:51 AM,33.1,27.0,78,30.04,10.0,SSW,4.6,-,N/A,,Overcast,210,2013-03-13 05:51:00
1:58 AM,33.8,26.6,75,29.97,10.0,SW,3.5,-,N/A,,Mostly Cloudy,220,2013-03-13 05:58:00
2:35 AM,32.0,28.4,87,29.98,4.0,West,3.5,-,0.00,Snow,Light Snow,260,2013-03-13 06:35:00
2:51 AM,32.0,28.0,85,30.04,10.0,Calm,Calm,-,0.00,,Overcast,0,2013-03-13 06:51:00
3:51 AM,33.1,25.0,72,30.02,10.0,WNW,12.7,19.6,N/A,,Mostly Cloudy,290,2013-03-13 07:51:00
4:51 AM,32.0,24.1,73,30.02,10.0,WNW,9.2,-,N/A,,Clear,290,2013-03-13 08:51:00
5:51 AM,30.0,21.9,72,30.02,10.0,WNW,4.6,-,N/A,,Clear,290,2013-03-13 09:51:00
6:51 AM,28.9,21.9,75,30.03,10.0,Calm,Calm,-,N/A,,Mostly Cloudy,0,2013-03-13 10:51:00
7:48 AM,30.2,24.8,80,29.95,9.0,West,5.8,-,0.00,Snow,Light Snow,260,2013-03-13 11:48:00
7:51 AM,30.9,24.1,76,30.03,8.0,West,5.8,-,0.00,Snow,Light Snow,270,2013-03-13 11:51:00
8:01 AM,30.2,24.8,80,29.96,1.8,West,8.1,-,0.00,Snow,Light Snow,270,2013-03-13 12:01:00
8:25 AM,30.2,26.6,86,29.96,0.8,WNW,5.8,-,0.00,Snow,Light Snow,290,2013-03-13 12:25:00
8:43 AM,30.2,26.6,86,29.97,1.8,West,9.2,-,0.00,Snow,Light Snow,270,2013-03-13 12:43:00
8:51 AM,30.0,27.0,88,30.05,2.0,West,6.9,-,0.00,Snow,Light Snow,260,2013-03-13 12:51:00
8:58 AM,30.2,26.6,86,29.97,1.8,WSW,6.9,-,0.00,Snow,Light Snow,250,2013-03-13 12:58:00
9:02 AM,30.2,26.6,86,29.97,3.0,WSW,6.9,-,0.00,Snow,Light Snow,240,2013-03-13 13:02:00
9:10 AM,30.2,26.6,86,29.97,5.0,WSW,6.9,-,0.00,Snow,Light Snow,250,2013-03-13 13:10:00
9:22 AM,30.2,26.6,86,29.96,2.5,West,6.9,-,0.00,Snow,Light Snow,260,2013-03-13 13:22:00
9:29 AM,30.2,26.6,86,29.96,0.8,WSW,6.9,-,0.00,Snow,Light Snow,250,2013-03-13 13:29:00
9:51 AM,30.0,27.0,88,30.05,0.8,WSW,8.1,-,0.01,Snow,Light Snow,250,2013-03-13 13:51:00
9:59 AM,30.2,26.6,86,29.97,1.8,West,6.9,-,0.00,Snow,Light Snow,260,2013-03-13 13:59:00
10:03 AM,30.2,26.6,86,29.97,2.0,West,8.1,-,0.00,Snow,Light Snow,260,2013-03-13 14:03:00
10:12 AM,30.2,28.4,93,29.97,3.0,West,6.9,-,0.01,Snow,Light Snow,270,2013-03-13 14:12:00
10:26 AM,30.2,26.6,86,29.96,1.8,West,4.6,-,0.01,Snow,Light Snow,270,2013-03-13 14:26:00
10:31 AM,30.2,26.6,86,29.97,0.8,WNW,10.4,-,0.01,Snow,Light Snow,290,2013-03-13 14:31:00
10:39 AM,28.4,26.6,93,29.97,0.2,WNW,10.4,-,0.01,Fog-Snow,Heavy Snow,300,2013-03-13 14:39:00
10:51 AM,30.0,24.1,79,30.06,2.5,WNW,15.0,23.0,0.02,Snow,Light Snow,290,2013-03-13 14:51:00
10:53 AM,30.2,24.8,80,29.98,5.0,West,11.5,23.0,0.00,Snow,Light Snow,280,2013-03-13 14:53:00
11:05 AM,30.2,23.0,75,29.98,9.0,West,10.4,20.7,0.00,,Overcast,270,2013-03-13 15:05:00
11:51 AM,30.0,23.0,75,30.08,2.0,NW,13.8,-,0.00,Snow,Light Snow,310,2013-03-13 15:51:00
11:58 AM,28.4,23.0,80,29.99,1.2,West,10.4,-,0.00,Snow,Light Snow,280,2013-03-13 15:58:00
12:03 PM,28.4,23.0,80,29.99,2.5,West,9.2,-,0.00,Snow,Light Snow,280,2013-03-13 16:03:00
12:09 PM,30.2,24.8,80,29.99,8.0,West,12.7,18.4,0.00,Snow,Light Snow,260,2013-03-13 16:09:00
12:16 PM,30.2,23.0,75,29.99,9.0,West,12.7,-,0.00,Snow,Light Snow,280,2013-03-13 16:16:00
12:51 PM,32.0,23.0,69,30.06,10.0,West,11.5,-,0.00,,Overcast,280,2013-03-13 16:51:00
1:05 PM,30.2,23.0,75,29.99,1.8,NNW,19.6,25.3,0.00,Snow,Light Snow,330,2013-03-13 17:05:00
1:09 PM,28.4,24.8,86,29.99,0.5,NW,12.7,25.3,0.00,Fog-Snow,Snow,320,2013-03-13 17:09:00
1:12 PM,28.4,26.6,93,30.00,0.2,NW,12.7,25.3,0.00,Fog-Snow,Heavy Snow,320,2013-03-13 17:12:00
1:15 PM,28.4,26.6,93,30.00,0.2,NW,15.0,21.9,0.00,Fog-Snow,Heavy Snow,320,2013-03-13 17:15:00
1:22 PM,28.4,24.8,86,30.00,0.5,NW,12.7,20.7,0.00,Fog-Snow,Snow,310,2013-03-13 17:22:00
1:30 PM,28.4,24.8,86,30.00,2.0,WNW,16.1,26.5,0.01,Snow,Light Snow,300,2013-03-13 17:30:00
1:38 PM,30.2,23.0,75,30.00,9.0,WNW,13.8,21.9,0.01,Snow,Light Snow,290,2013-03-13 17:38:00
1:51 PM,30.0,21.9,72,30.08,10.0,WNW,17.3,28.8,0.01,,Overcast,290,2013-03-13 17:51:00
2:07 PM,32.0,21.2,64,30.00,10.0,West,21.9,31.1,N/A,,Overcast,280,2013-03-13 18:07:00
2:17 PM,30.2,21.2,69,30.00,10.0,West,12.7,25.3,N/A,,Overcast,280,2013-03-13 18:17:00
2:51 PM,33.1,23.0,66,30.07,10.0,West,16.1,26.5,0.00,,Scattered Clouds,280,2013-03-13 18:51:00
3:03 PM,30.2,23.0,75,30.00,1.8,WNW,17.3,28.8,0.00,Snow,Light Snow,300,2013-03-13 19:03:00
3:07 PM,28.4,24.8,86,30.00,0.8,WNW,15.0,26.5,0.00,Snow,Light Snow,290,2013-03-13 19:07:00
3:24 PM,32.0,24.8,75,30.00,3.0,WNW,12.7,-,0.00,Snow,Light Snow,290,2013-03-13 19:24:00
3:47 PM,30.2,21.2,69,30.01,8.0,West,10.4,31.1,0.00,Snow,Light Snow,280,2013-03-13 19:47:00
3:51 PM,30.9,21.9,69,30.09,9.0,West,11.5,24.2,0.00,,Mostly Cloudy,280,2013-03-13 19:51:00
4:03 PM,28.4,21.2,74,30.02,1.5,WNW,24.2,35.7,0.00,Snow,Light Snow,290,2013-03-13 20:03:00
4:16 PM,28.4,21.2,74,30.03,4.0,West,13.8,19.6,0.00,Snow,Light Snow,280,2013-03-13 20:16:00
4:23 PM,30.2,23.0,75,30.03,9.0,West,12.7,-,0.00,,Overcast,280,2013-03-13 20:23:00
4:48 PM,28.4,21.2,74,30.04,2.5,WNW,16.1,20.7,0.00,Snow,Light Snow,300,2013-03-13 20:48:00
4:51 PM,27.0,21.0,78,30.13,1.5,NW,17.3,23.0,0.00,Snow,Light Snow,320,2013-03-13 20:51:00
5:01 PM,28.4,19.4,69,30.04,3.0,WNW,12.7,24.2,0.00,Snow,Light Snow,300,2013-03-13 21:01:00
5:16 PM,30.2,19.4,64,30.05,10.0,WNW,18.4,25.3,0.00,,Overcast,290,2013-03-13 21:16:00
5:36 PM,26.6,19.4,74,30.06,1.8,NNW,17.3,26.5,0.00,Snow,Light Snow,330,2013-03-13 21:36:00
5:41 PM,26.6,21.2,80,30.07,0.8,NW,15.0,-,0.00,Snow,Light Snow,320,2013-03-13 21:41:00
5:44 PM,26.6,21.2,80,30.07,0.5,NW,12.7,23.0,0.00,Fog-Snow,Snow,310,2013-03-13 21:44:00
5:51 PM,26.1,21.9,84,30.17,0.5,NW,12.7,19.6,0.00,Fog-Snow,Snow,310,2013-03-13 21:51:00
6:03 PM,26.6,21.2,80,30.07,2.0,NW,17.3,21.9,0.00,Snow,Light Snow,320,2013-03-13 22:03:00
6:14 PM,26.6,21.2,80,30.08,1.2,NW,16.1,26.5,0.00,Snow,Light Snow,310,2013-03-13 22:14:00
6:21 PM,26.6,19.4,74,30.08,3.0,WNW,16.1,21.9,0.00,Snow,Light Snow,290,2013-03-13 22:21:00
6:28 PM,26.6,17.6,69,30.08,9.0,WNW,10.4,21.9,0.00,,Overcast,300,2013-03-13 22:28:00
6:43 PM,24.8,19.4,80,30.09,1.2,NNW,17.3,23.0,0.00,Snow,Light Snow,330,2013-03-13 22:43:00
6:51 PM,24.1,19.9,84,30.19,0.5,NW,12.7,23.0,0.00,Fog-Snow,Light Snow,310,2013-03-13 22:51:00
6:57 PM,24.8,19.4,80,30.09,2.5,WNW,11.5,-,0.00,Snow,Light Snow,300,2013-03-13 22:57:00
7:04 PM,24.8,19.4,80,30.09,3.0,NW,13.8,-,0.00,Snow,Light Snow,310,2013-03-13 23:04:00
7:47 PM,24.8,19.4,80,30.10,1.8,WNW,12.7,-,0.00,Snow,Light Snow,300,2013-03-13 23:47:00
7:51 PM,24.1,19.0,81,30.21,1.0,NNW,12.7,-,0.00,Snow,Light Snow,330,2013-03-13 23:51:00
7:58 PM,23.0,19.4,86,30.11,0.5,WNW,13.8,-,0.00,Fog-Snow,Snow,300,2013-03-13 23:58:00
8:06 PM,23.0,19.4,86,30.11,2.0,WNW,11.5,20.7,0.00,Snow,Light Snow,300,2013-03-14 00:06:00
8:14 PM,23.0,17.6,80,30.11,9.0,NW,11.5,19.6,0.00,,Mostly Cloudy,310,2013-03-14 00:14:00
8:51 PM,23.0,17.1,78,30.22,10.0,WNW,6.9,18.4,0.01,,Overcast,300,2013-03-14 00:51:00
9:51 PM,24.1,16.0,71,30.23,10.0,WNW,12.7,-,N/A,,Overcast,290,2013-03-14 01:51:00
10:51 PM,23.0,17.1,78,30.23,4.0,West,12.7,-,0.00,Snow,Light Snow,270,2013-03-14 02:51:00
11:11 PM,23.0,17.6,80,30.13,1.8,WNW,11.5,-,0.00,Snow,Light Snow,300,2013-03-14 03:11:00
11:23 PM,21.2,19.4,93,30.13,0.8,WNW,6.9,-,0.00,Snow,Light Snow,300,2013-03-14 03:23:00
11:32 PM,21.2,19.4,93,30.14,1.0,WNW,6.9,-,0.00,Snow,Light Snow,300,2013-03-14 03:32:00
11:47 PM,21.2,17.6,86,30.13,2.0,NW,11.5,-,0.01,Snow,Light Snow,310,2013-03-14 03:47:00
11:51 PM,21.9,18.0,85,30.24,3.0,NW,10.4,18.4,0.01,Snow,Light Snow,310,2013-03-14 03:51:00